Vorticity
7 6 7 6 5 5 5 6 5 6 6 5 6 6 7 6 7 5 4 8 14 14 13 11 13 12 10 11 10 5 4 6 7 7 7 7 6 6 5 5 4 5 7 6
7 5 7 6 5 5 5 5 5 4 5 5 6 9 10 9 9 9 11 7 11 15 8 15 15 14 14 10 11 11 8 6 5 6 6 5 5 6 6 5 5 7 7 7
10 6 6 5 5 5 5 5 4 4 4 7 13 11 11 12 9 7 8 13 12 15 13 11 9 14 14 14 13 12 11 10 9 7 7 7 7 7 8 8 9 6 6 7
8 6 5 4 4 2 4 3 4 4 8 14 9 3 13 6 10 7 6 7 13 14 17 10 9 10 12 13 12 10 10 10 10 10 10 10 9 9 8 6 6 6 5 6
5 7 7 6 3 4 4 4 5 6 9 7 -0 9 6 5 6 10 8 7 5 7 19 15 10 1 -1 0 3 7 9 10 10 10 9 9 8 7 7 7 6 8 5 4
4 7 7 6 5 4 5 5 5 6 5 1 3 -2 3 12 9 5 7 4 4 9 11 14 13 18 15 10 10 9 10 11 8 7 6 6 5 7 6 3 5 5 3 2
5 5 8 5 4 4 5 6 8 5 9 1 1 2 2 9 7 6 10 1 8 8 4 2 6 13 10 12 13 11 8 5 3 3 2 2 2 4 6 9 10 6 10 13
4 7 5 6 4 5 4 3 3 9 3 4 -1 10 7 10 6 4 13 13 12 9 9 7 7 10 9 10 8 7 8 7 7 7 7 6 5 5 7 8 8 7 6 -1
6 6 4 4 6 3 5 4 3 6 5 3 3 -1 6 13 0 11 9 7 9 4 4 7 6 5 6 4 3 3 4 5 5 4 3 4 5 5 5 5 5 4 5 4
5 5 4 4 3 4 4 3 5 5 6 4 0 3 12 8 12 8 10 4 4 7 7 5 2 6 7 7 11 11 13 11 11 12 12 9 7 5 5 6 6 6 6 8
4 4 3 3 3 4 3 3 4 3 1 3 4 7 13 12 11 10 3 6 6 5 7 7 8 13 7 6 8 8 7 5 4 4 2 1 4 9 11 11 12 12 10 8
3 2 4 5 4 3 2 2 2 2 4 1 9 13 7 12 4 6 5 4 7 6 5 5 7 5 5 8 10 9 6 3 3 4 5 5 7 10 12 9 3 -2 1 13
4 3 2 2 4 2 5 4 2 2 3 6 19 8 6 7 4 4 7 8 7 7 8 9 6 3 5 9 7 7 7 5 6 14 13 9 8 8 3 -0 7 13 14 14
4 4 5 4 4 4 3 1 2 5 13 22 6 11 8 3 5 8 8 9 9 9 10 8 3 4 12 11 8 5 2 5 13 8 10 15 17 19 21 21 19 12 13 4
6 3 2 3 6 9 12 12 16 18 14 -1 10 6 5 6 11 11 9 10 13 19 10 1 9 18 6 8 10 11 9 9 13 14 11 8 5 10 9 -1 -2 6 6 16
1 3 2 8 13 17 13 11 3 7 13 7 8 13 14 15 10 9 14 16 15 1 -4 11 12 3 9 12 12 15 9 8 12 14 16 18 18 9 6 7 7 9 16 14
10 13 16 8 10 5 4 12 4 3 8 12 12 10 15 11 15 15 16 18 16 10 -18 7 4 21 19 11 10 14 14 11 16 18 15 15 15 17 19 25 25 13 13 7
15 11 8 6 7 0 11 7 12 15 10 9 26 25 21 20 18 -4 11 15 17 2 4 21 14 4 16 14 9 20 20 20 19 16 17 17 18 18 19 19 18 19 21 23
11 10 15 9 12 12 14 16 8 13 11 20 9 8 15 3 8 20 12 1 1 20 10 16 14 6 12 17 19 18 15 14 18 18 17 18 19 22 24 23 20 19 18 21
10 9 7 14 13 12 14 22 22 21 20 13 -4 2 16 20 9 4 17 20 16 19 7 8 17 18 18 17 17 18 18 15 18 17 15 13 10 10 14 18 20 18 12 10
13 10 7 12 14 20 16 14 14 17 -2 13 15 13 8 12 17 19 17 8 3 3 22 18 19 17 18 17 15 15 16 16 11 9 9 12 10 12 15 15 10 14 16 11
15 16 14 14 11 20 15 7 8 13 18 18 14 14 19 17 12 11 12 18 26 19 18 17 17 15 13 15 14 12 11 10 11 11 13 13 10 14 14 12 16 11 15 17
22 18 20 20 17 15 15 16 26 18 21 15 18 8 14 15 24 15 14 9 12 12 16 16 12 14 14 12 10 12 8 7 10 10 11 13 14 14 15 12 11 15 14 9
22 20 19 22 20 20 21 19 17 15 20 14 11 -5 17 6 10 5 6 11 17 17 16 10 12 13 9 8 9 6 5 6 6 9 10 13 16 13 15 9 15 17 8 18
21 18 15 17 19 18 21 24 11 12 11 17 19 16 12 5 7 17 19 19 14 14 11 8 9 10 7 5 5 6 6 3 5 5 10 11 15 16 9 13 18 8 16 14
9 10 14 17 16 27 20 14 12 9 6 5 -3 10 9 11 12 16 15 14 12 10 10 9 6 6 6 6 4 4 3 2 3 3 7 9 12 16 8 13 14 9 14 13
Height
5794 5793 5791 5790 5789 5787 5785 5783 5782 5779 5776 5776 5772 5769 5766 5762 5759 5756 5753 5751 5747 5745 5743 5741 5740 5739 5738 5738 5738 5738 5738 5738 5739 5739 5739 5739 5739 5739 5739 5738 5738 5739 5739 5739
5792 5790 5788 5787 5785 5783 5780 5778 5776 5775 5771 5770 5767 5763 5759 5756 5754 5750 5748 5745 5741 5738 5736 5734 5732 5731 5730 5730 5730 5730 5730 5730 5729 5730 5730 5730 5729 5729 5729 5728 5727 5728 5728 5728
5787 5786 5784 5782 5780 5778 5775 5772 5770 5768 5766 5764 5761 5759 5754 5750 5747 5745 5742 5739 5735 5732 5729 5727 5725 5724 5723 5722 5722 5721 5721 5721 5721 5721 5721 5720 5720 5719 5718 5717 5716 5715 5715 5715
5784 5782 5780 5778 5775 5773 5770 5767 5764 5762 5759 5757 5755 5753 5749 5745 5740 5736 5735 5732 5730 5726 5723 5720 5718 5717 5716 5715 5714 5713 5713 5712 5711 5711 5710 5709 5709 5708 5706 5705 5704 5702 5701 5700
5781 5777 5775 5773 5770 5767 5764 5760 5758 5755 5752 5751 5749 5746 5743 5739 5734 5729 5726 5724 5722 5720 5717 5715 5712 5710 5709 5708 5706 5705 5704 5703 5702 5701 5699 5698 5696 5695 5694 5693 5692 5690 5689 5688
5773 5771 5769 5767 5764 5761 5757 5754 5751 5748 5745 5743 5740 5737 5736 5731 5727 5723 5719 5716 5713 5712 5710 5708 5705 5702 5699 5697 5696 5695 5693 5692 5690 5688 5687 5685 5684 5683 5681 5679 5678 5676 5675 5674
5767 5765 5763 5760 5757 5754 5751 5747 5742 5739 5736 5733 5731 5727 5727 5722 5717 5714 5712 5708 5705 5702 5700 5699 5697 5695 5691 5688 5686 5685 5683 5682 5680 5677 5675 5673 5671 5668 5666 5664 5662 5660 5658 5656
5758 5758 5756 5754 5751 5747 5744 5741 5737 5729 5727 5724 5722 5718 5715 5712 5708 5705 5701 5697 5695 5693 5690 5688 5685 5683 5681 5679 5676 5674 5671 5668 5666 5664 5661 5658 5655 5653 5651 5649 5646 5643 5641 5640
5749 5749 5747 5745 5742 5740 5735 5732 5729 5723 5719 5713 5711 5707 5703 5700 5697 5694 5690 5686 5684 5682 5680 5678 5674 5672 5670 5667 5664 5660 5657 5654 5651 5648 5645 5642 5640 5637 5635 5632 5628 5626 5623 5620
5741 5736 5737 5736 5734 5731 5727 5723 5719 5714 5707 5701 5699 5695 5692 5688 5684 5680 5677 5674 5671 5668 5665 5663 5661 5658 5655 5651 5649 5646 5643 5640 5637 5635 5632 5628 5624 5620 5616 5612 5609 5606 5603 5601
5732 5729 5726 5725 5723 5720 5716 5712 5708 5703 5699 5692 5688 5684 5679 5676 5672 5668 5665 5662 5658 5654 5652 5650 5648 5646 5642 5638 5634 5631 5627 5624 5621 5617 5613 5610 5606 5601 5597 5592 5588 5585 5581 5578
5722 5715 5712 5712 5709 5707 5703 5700 5695 5690 5685 5677 5676 5671 5669 5665 5660 5655 5650 5646 5643 5639 5636 5633 5628 5625 5622 5620 5619 5616 5613 5608 5604 5599 5595 5590 5585 5581 5577 5572 5568 5564 5561 5557
5709 5703 5701 5697 5697 5692 5688 5685 5679 5674 5668 5664 5661 5657 5652 5646 5643 5640 5636 5633 5629 5625 5621 5617 5612 5608 5605 5601 5597 5594 5590 5586 5583 5578 5574 5569 5565 5562 5557 5553 5548 5544 5540 5536
5695 5691 5690 5685 5683 5677 5672 5669 5663 5657 5652 5650 5644 5644 5638 5633 5628 5625 5621 5617 5613 5609 5604 5599 5595 5591 5586 5581 5577 5572 5568 5563 5559 5555 5552 5547 5543 5538 5534 5529 5525 5521 5517 5513
5680 5676 5672 5669 5666 5662 5658 5653 5647 5641 5640 5631 5636 5625 5620 5617 5612 5609 5604 5600 5596 5591 5586 5582 5578 5572 5568 5564 5559 5554 5549 5545 5540 5534 5529 5525 5521 5517 5512 5507 5503 5498 5493 5488
5664 5658 5654 5651 5648 5641 5637 5633 5631 5627 5623 5616 5613 5609 5604 5599 5595 5591 5587 5583 5579 5574 5570 5566 5560 5555 5550 5545 5540 5535 5530 5526 5521 5515 5510 5504 5499 5494 5489 5484 5478 5472 5467 5463
5645 5638 5632 5629 5626 5619 5618 5619 5613 5609 5604 5599 5594 5591 5584 5581 5577 5574 5569 5564 5562 5557 5554 5549 5544 5537 5532 5527 5522 5517 5511 5505 5500 5494 5489 5483 5479 5474 5468 5461 5455 5450 5445 5439
5627 5622 5615 5611 5606 5598 5601 5595 5591 5585 5579 5576 5571 5566 5563 5561 5558 5555 5551 5547 5544 5541 5535 5529 5524 5519 5514 5509 5504 5498 5492 5487 5481 5476 5471 5465 5459 5454 5448 5441 5435 5430 5424 5419
5611 5604 5597 5591 5587 5582 5578 5576 5572 5565 5562 5560 5555 5552 5549 5547 5541 5535 5532 5530 5527 5521 5516 5511 5506 5501 5497 5492 5486 5481 5475 5470 5465 5459 5453 5446 5441 5435 5429 5422 5415 5408 5402 5397
5590 5584 5578 5574 5566 5561 5560 5555 5551 5547 5544 5541 5538 5534 5529 5526 5523 5519 5515 5511 5507 5502 5498 5493 5488 5484 5479 5475 5471 5466 5461 5455 5449 5444 5438 5431 5426 5420 5413 5406 5399 5393 5387 5382
5572 5564 5559 5551 5545 5541 5538 5535 5531 5529 5529 5523 5519 5515 5512 5509 5505 5500 5497 5493 5490 5486 5481 5477 5473 5469 5465 5461 5457 5452 5447 5442 5437 5431 5424 5418 5411 5405 5398 5393 5386 5380 5373 5368
5551 5544 5540 5534 5530 5526 5526 5521 5518 5513 5508 5505 5502 5499 5496 5493 5489 5486 5482 5479 5474 5469 5466 5463 5459 5455 5451 5448 5444 5439 5435 5430 5425 5419 5413 5406 5399 5392 5386 5380 5373 5366 5360 5354
5533 5528 5521 5516 5511 5506 5503 5500 5498 5494 5491 5488 5486 5484 5481 5477 5474 5471 5468 5464 5460 5456 5453 5450 5446 5442 5438 5436 5433 5430 5425 5420 5414 5408 5401 5394 5387 5381 5375 5369 5362 5355 5348 5342
5515 5506 5501 5496 5495 5491 5488 5484 5482 5479 5477 5475 5473 5470 5467 5465 5462 5458 5456 5453 5448 5446 5443 5440 5436 5433 5429 5426 5422 5419 5415 5410 5404 5398 5391 5383 5377 5371 5363 5356 5349 5343 5336 5329
5496 5489 5485 5483 5478 5476 5473 5470 5468 5467 5466 5463 5461 5458 5455 5452 5450 5448 5444 5441 5437 5435 5432 5429 5426 5423 5420 5416 5412 5408 5404 5399 5394 5388 5381 5373 5366 5360 5353 5345 5337 5331 5324 5316
5481 5476 5472 5469 5466 5463 5462 5460 5458 5455 5453 5451 5449 5446 5443 5440 5437 5435 5432 5429 5427 5423 5421 5418 5415 5412 5409 5405 5401 5397 5393 5389 5383 5378 5371 5364 5357 5350 5343 5336 5329 5319 5312 5306